Regional Weather Roundup
Issued by NWS

Home | Current Version | Previous Version | Text Only | Print | Product List | Glossary On
Versions: 1 2 3 4 5 6 7 8 9 10 11 12 13 14 15 16 17 18 19 20 21 22 23 24 25 26 27 28 29 30 31 32 33 34 35 36 37 38 39 40 41 42 43 44 45 46 47 48 49 50
000
ASUS43 KDTX 301310
RWRMI
MICHIGAN HOURLY REGIONAL WEATHER ROUNDUP
NATIONAL WEATHER SERVICE DETROIT/PONTIAC MI
900 AM EDT TUE AUG 30 2016

NOTE: "FAIR" INDICATES FEW OR NO CLOUDS BELOW 12,000 FEET WITH NO
SIGNIFICANT WEATHER AND/OR OBSTRUCTION TO VISIBILITY.

MIZ047>049-052>055-059>063-066>070-074>076-081>083-301400-
SOUTHEAST LOWER MICHIGAN

CITY           SKY/WX    TMP DP  RH WIND       PRES   REMARKS
ADRIAN         MOSUNNY   69  66  90 CALM      30.20S
ALMA           MOSUNNY   71  70  98 SW8       30.17S
ANN ARBOR      CLOUDY    70  66  87 S3        30.19S
BAD AXE        MOSUNNY   70  66  86 S5        30.16F
CARO           PTSUNNY   69  67  93 S6        30.16F
DETROIT CITY   CLOUDY    73  69  87 CALM      30.19S
DETROIT        PTSUNNY   73  64  73 SW7       30.20S
FLINT          MOSUNNY   72  66  81 S7        30.18R
GROSSE ILE     CLOUDY    71  66  85 CALM      30.18S
HILLSDALE      PTSUNNY   69  61  77 CALM      30.19F
HOWELL         PTSUNNY   70  66  87 S3        30.18F

CITY           SKY/WX    TMP DP  RH WIND       PRES   REMARKS
JACKSON        MOSUNNY   70  65  84 S3        30.18F
LAMBERTVILLE   SUNNY     69  67  94 CALM      30.19S
LANSING        CLOUDY    71  61  70 SW6       30.18S
LAPEER         FAIR      68  67  94 CALM      30.18S
MASON          CLOUDY    69  64  84 SE3       30.18S
MONROE         SUNNY     67  67  99 CALM      30.18F
MT. CLEMENS    MOSUNNY   76  69  78 SW3       30.16F
PONTIAC        PTSUNNY   72  67  84 S5        30.18S
PORT HOPE        N/A     71  65  81 SW6       30.13
PORT HURON     MOSUNNY   68  68 100 CALM      30.18F
TRI CITIES     CLOUDY    70  68  93 SW8       30.17R
MIDLAND        FAIR      70  68  94 CALM      30.14F
TROY           CLOUDY    73  66  78 SW5       30.20S
SAGINAW HB     CLOUDY    70  66  88 S5        30.15F
$$
MIZ043>046-050>051-056>058-064>065-071>073-077>080-301400-
SOUTHWEST LOWER MICHIGAN

CITY           SKY/WX    TMP DP  RH WIND       PRES   REMARKS
BATTLE CREEK   CLOUDY    68  65  90 SW3       30.19F
BENTON HARBOR  TSTM      68  66  93 SE8       30.18R VSB 1
BIG RAPIDS     PTSUNNY   68  67  97 CALM      30.15F
COLDWATER      LGT RAIN  68  64  87 CALM      30.17F
FREMONT        FAIR      69  69  99 S3        30.15S FOG
HOLLAND        CLOUDY    73  68  84 S3        30.16F
GRAND RAPIDS   CLOUDY    73  68  84 S6        30.17S
IONIA          FAIR      71  65  83 S5        30.16F
KALAMAZOO      CLOUDY    72  67  84 CALM      30.17F
LUDINGTON      CLOUDY    70  70 100 CALM      30.12F FOG
MARSHALL       CLOUDY    69  65  88 W3        30.18S
MOUNT PLEASANT CLOUDY    70  69  96 SW3       30.15S
MUSKEGON       CLOUDY    74  71  91 S6        30.15S
SOUTH HAVEN    LGT RAIN  71  70  97 SW7       30.17S
$$
MIZ016>042-301400-
NORTHERN LOWER MICHIGAN

CITY           SKY/WX    TMP DP  RH WIND       PRES   REMARKS
ALPENA         SUNNY     73  65  75 SW7       30.11S
BEAVER ISLAND  MOSUNNY   73  71  93 SW8       30.10R
BELLAIRE       MOSUNNY   72  66  83 S5        30.10F
CADILLAC       CLOUDY    68  67  95 SW5       30.15F
CHARLEVOIX     MOSUNNY   73  69  86 S5        30.13S
FRANKFORT      CLOUDY    72  69  92 CALM      30.12F FOG
GAYLORD        SUNNY     70  65  84 SW10      30.13F
GRAYLING       SUNNY     69  65  88 SW5       30.15S
HARBOR SPRINGS CLOUDY    71  67  89 S3        30.10S
HOUGHTON LAKE  SUNNY     70  66  87 SW5       30.16S
MANISTEE       FOG       68  67  96 E3        30.12F VSB<1/4
OSCODA         SUNNY     71  67  89 SW7       30.13S
PELLSTON       CLOUDY    73  68  84 SW6       30.10S
ROGERS CITY    SUNNY     73  66  78 SW8       30.10S
TRAVERSE CITY  PTSUNNY   73  68  84 VRB3      30.10S
$$
MIZ007>008-015-301400-
EASTERN UPPER MICHIGAN

CITY           SKY/WX    TMP DP  RH WIND       PRES   REMARKS
KINROSS        PTSUNNY   69  68  96 W6        30.08R
MACKINAC ISLAN MOSUNNY   72  72 100 SW7       30.08S
NEWBERRY       CLOUDY    70  67  92 W6        30.08R
S. S. MARIE    CLOUDY    67  65  93 CALM      30.05F
MUNISING         N/A     72  66  81 N5        30.08
$$
MIZ004>006-011>014-085-301400-
CENTRAL UPPER MICHIGAN

CITY           SKY/WX    TMP DP  RH WIND       PRES   REMARKS
MANISTIQUE     MOSUNNY   71  69  92 CALM      30.08S
ESCANABA       MOSUNNY   70  69  97 W5        30.10R
MENOMINEE      PTSUNNY  N/A N/A N/A CALM      30.12  HAZE
SAWYER-GWINN   SUNNY     66  63  88 W6        30.11R
$$
MIZ001>003-009>011-084-301400-
WESTERN UPPER MICHIGAN

CITY           SKY/WX    TMP DP  RH WIND       PRES   REMARKS
IRON MOUNTAIN  CLOUDY    69  66  90 CALM      30.12R
HOUGHTON       MOSUNNY   69  62  78 N3        30.10R
COPPER HARBOR    N/A     69  64  84 N9        30.07
IRONWOOD       CLOUDY    66  65  96 N6        30.16R
$$

ABBREVIATIONS USED IN REMARKS
   TC - TEMPERATURE IN CELSIUS
  WCI - WIND CHILL INDEX
   HX - HEAT INDEX
  VSB - VISIBILITY





USA.gov is the U.S. government's official web portal to all federal, state and local government web resources and services.